N5YHF Weather Reports


time (UTC)temp
C
wind
direction
speed
KPH
gust
KPH
rain 1hr
cm
rain 24hr
cm
rain mn
cm
humidity
%
barometer
mb
20260506081035 24 181 3.2 14.5 0.00 0.00 0.00 86 1007.1
20260506073047 24 178 4.8 11.3 0.00 0.00 0.00 86 1007.4
20260506072017 24 182 3.2 11.3 0.00 0.00 0.00 85 1007.4
20260506071026 24 181 6.4 20.9 0.00 0.00 0.00 85 1007.4
20260506062034 24 181 4.8 14.5 0.00 0.00 0.00 86 1007.5
20260506061021 24 172 4.8 12.9 0.00 0.00 0.00 86 1007.3
20260506051031 24 169 3.2 11.3 0.00 0.00 0.00 85 1007.5
20260506045028 24 155 3.2 9.7 0.00 0.00 0.00 85 1007.5
20260506044017 24 184 6.4 12.9 0.00 0.00 0.00 85 1007.5
20260506043027 25 177 4.8 9.7 0.00 0.00 0.00 85 1007.2
20260506042035 25 153 4.8 9.7 0.00 0.00 0.00 84 1007.3
20260506041023 25 148 4.8 11.3 0.00 0.00 0.00 84 1007.2
20260506040051 25 161 3.2 9.7 0.00 0.00 0.00 83 1007.3
20260506035017 25 169 4.8 14.5 0.00 0.00 0.00 83 1006.8
20260506034022 25 165 3.2 11.3 0.00 0.00 0.00 83 1006.9
20260506033031 25 171 4.8 11.3 0.00 0.00 0.00 82 1006.8
20260506032206 25 141 3.2 9.7 0.00 0.00 0.00 82 1006.8
20260506031029 25 154 4.8 12.9 0.00 0.00 0.00 81 1006.8
20260506030035 25 163 4.8 11.3 0.00 0.00 0.00 80 1006.7
20260506025024 26 179 4.8 9.7 0.00 0.00 0.00 79 1006.4
20260506024030 26 158 3.2 9.7 0.00 0.00 0.00 78 1006.2
20260506023016 26 149 4.8 11.3 0.00 0.00 0.00 76 1005.9
20260506022024 26 164 3.2 6.4 0.00 0.00 0.00 76 1005.9
20260506021035 26 158 1.6 6.4 0.00 0.00 0.00 76 1005.7
20260506020018 26 146 4.8 9.7 0.00 0.00 0.00 75 1005.4
20260506015025 26 144 1.6 9.7 0.00 0.00 0.00 74 1005.4
20260506014034 26 146 3.2 8.0 0.00 0.00 0.00 74 1005.3
20260506013021 27 156 3.2 8.0 0.00 0.00 0.00 73 1005.3
20260506012032 27 163 3.2 9.7 0.00 0.00 0.00 73 1005.3
20260506011020 27 162 4.8 9.7 0.00 0.00 0.00 72 1005.5
20260506010027 27 126 3.2 6.4 0.00 0.00 0.00 71 1005.1
20260506005035 27 138 3.2 6.4 0.00 0.00 0.00 70 1005.5
20260506004023 28 151 1.6 6.4 0.00 0.00 0.00 70 1005.3
20260506003057 28 158 3.2 8.0 0.00 0.00 0.00 69 1005.3
20260506002024 28 162 3.2 6.4 0.00 0.00 0.00 68 1005.4
20260506001028 28 156 1.6 6.4 0.00 0.00 0.00 67 1005.1
20260506000036 28 144 1.6 8.0 0.00 0.00 0.00 67 1005.1
20260505235024 28 169 3.2 14.5 0.00 0.00 0.00 66 1005.1
20260505234035 28 154 3.2 11.3 0.00 0.00 0.00 66 1005.0
20260505233042 28 171 4.8 11.3 0.00 0.00 0.00 66 1004.8
20260505232029 28 173 3.2 12.9 0.00 0.00 0.00 66 1004.8
20260505231037 28 171 3.2 11.3 0.00 0.00 0.00 67 1005.0
20260505230024 28 158 4.8 9.7 0.00 0.00 0.00 66 1004.8
20260505225034 28 170 3.2 9.7 0.00 0.00 0.00 66 1004.8
20260505224044 28 165 4.8 16.1 0.00 0.00 0.00 65 1004.6
20260505223033 29 179 4.8 11.3 0.00 0.00 0.00 64 1004.7
20260505222021 29 180 3.2 9.7 0.00 0.00 0.00 63 1004.6
20260505221030 29 165 1.6 9.7 0.00 0.00 0.00 64 1004.9
20260505220018 28 179 4.8 14.5 0.00 0.00 0.00 63 1004.9
20260505215025 28 167 4.8 11.3 0.00 0.00 0.00 64 1005.2
20260505214035 28 187 4.8 14.5 0.00 0.00 0.00 64 1005.2
20260505213025 28 146 6.4 20.9 0.00 0.00 0.00 65 1005.2
20260505212035 28 180 6.4 14.5 0.00 0.00 0.00 64 1005.5
20260505211024 29 172 6.4 12.9 0.00 0.00 0.00 64 1005.5
20260505210033 28 181 4.8 14.5 0.00 0.00 0.00 65 1005.8
20260505205021 28 178 4.8 14.5 0.00 0.00 0.00 66 1005.7
20260505204031 28 181 6.4 14.5 0.00 0.00 0.00 67 1005.8
20260505203041 28 167 6.4 17.7 0.00 0.00 0.00 66 1005.9
20260505202029 28 182 6.4 19.3 0.00 0.00 0.00 68 1006.1
20260505201018 28 192 6.4 14.5 0.00 0.00 0.00 67 1006.3
20260505200530 28 178 6.4 14.5 0.00 0.00 0.00 68 1006.6
20260505195539 28 176 4.8 12.9 0.00 0.00 0.00 69 1006.5
20260505194526 27 159 1.6 8.0 0.00 0.00 0.00 71 1006.8
20260505193537 27 157 4.8 16.1 0.00 0.00 0.00 71 1006.8
20260505192525 27 177 4.8 16.1 0.00 0.00 0.00 70 1006.8
20260505191534 27 171 4.8 11.3 0.00 0.00 0.00 71 1006.8
20260505190523 27 170 3.2 11.3 0.00 0.00 0.00 72 1007.0
20260505185533 27 171 4.8 8.0 0.00 0.00 0.00 73 1006.8
20260505184523 26 157 3.2 9.7 0.00 0.00 0.00 73 1007.2
20260505183533 26 156 4.8 11.3 0.00 0.00 0.00 75 1007.3
20260505182521 26 173 6.4 12.9 0.00 0.00 0.00 74 1007.5
20260505181531 26 167 3.2 16.1 0.00 0.00 0.00 75 1007.4
20260505180520 25 154 3.2 9.7 0.00 0.00 0.00 76 1007.5
20260505175550 25 168 3.2 9.7 0.00 0.00 0.00 77 1007.7
20260505174540 25 176 3.2 9.7 0.00 0.00 0.00 77 1007.8
20260505173528 25 156 3.2 11.3 0.00 0.00 0.00 79 1008.0
20260505172538 24 165 3.2 9.7 0.00 0.00 0.00 79 1008.0
20260505171528 23 171 4.8 11.3 0.00 0.00 0.00 80 1007.8
20260505170517 23 182 3.2 12.9 0.00 0.00 0.00 81 1008.2
20260505165528 23 170 4.8 9.7 0.00 0.00 0.00 82 1008.1
20260505164517 23 162 3.2 9.7 0.00 0.00 0.00 83 1008.0
20260505163527 23 177 3.2 16.1 0.00 0.00 0.00 83 1007.8
20260505162516 22 162 3.2 11.3 0.00 0.00 0.00 84 1008.1
20260505161526 22 162 3.2 11.3 0.00 0.00 0.00 85 1008.1
20260505160536 22 150 3.2 8.0 0.00 0.00 0.00 85 1008.2
20260505152536 22 142 3.2 9.7 0.00 0.00 0.00 86 1008.1
20260505151525 22 137 3.2 11.3 0.00 0.00 0.00 87 1008.0
20260505150535 22 148 3.2 8.0 0.00 0.00 0.00 86 1007.9
20260505140529 21 174 4.8 17.7 0.00 0.00 0.00 87 1007.5
20260505124518 21 157 3.2 12.9 0.00 0.00 0.00 87 1006.8
20260505123549 21 172 4.8 14.5 0.00 0.00 0.00 87 1006.5
20260505122518 21 166 4.8 22.5 0.00 0.00 0.00 87 1006.5
20260505121529 21 174 4.8 16.1 0.00 0.00 0.00 87 1006.4
20260505120520 21 174 4.8 14.5 0.00 0.00 0.00 87 1006.2
20260505115528 21 169 4.8 19.3 0.00 0.00 0.00 86 1006.2
20260505114518 21 173 4.8 12.9 0.00 0.00 0.00 86 1006.2
20260505113528 21 172 3.2 14.5 0.00 0.00 0.00 86 1006.2
20260505112517 21 180 4.8 14.5 0.00 0.00 0.00 86 1006.2
20260505111524 21 172 4.8 20.9 0.00 0.00 0.00 86 1006.2
20260505110551 21 173 4.8 16.1 0.00 0.00 0.00 86 1006.6
20260505101533 21 174 4.8 20.9 0.00 0.00 0.00 85 1006.6
20260505100521 21 177 4.8 16.1 0.00 0.00 0.00 84 1006.5
20260505095531 21 177 4.8 14.5 0.00 0.00 0.00 84 1006.4
20260505094521 21 176 4.8 20.9 0.00 0.00 0.00 84 1006.4
20260505093531 21 168 3.2 9.7 0.00 0.00 0.00 84 1006.6
20260505092521 21 163 4.8 12.9 0.00 0.00 0.00 84 1006.6
20260505091609 21 174 4.8 14.5 0.00 0.00 0.00 84 1006.5
20260505090519 21 177 3.2 16.1 0.00 0.00 0.00 84 1006.8
20260505085530 21 178 4.8 16.1 0.00 0.00 0.00 84 1006.7
20260505084521 21 169 3.2 11.3 0.00 0.00 0.00 84 1006.7
20260505083530 21 173 6.4 17.7 0.00 0.00 0.00 84 1006.8
20260505082539 21 184 8.0 20.9 0.00 0.00 0.00 84 1006.8